Tracking 30289 objects as of 29-Apr-2025
HD Live streaming from Space Station
objects crossing your sky now

STARLINK-33672

Track STARLINK-33672 now!
10-day predictions
STARLINK-33672 is classified as:


NORAD ID: 63326
Int'l Code: 2025-057V
Perigee: 489.7 km
Apogee: 490.8 km
Inclination: 43.0 °
Period: 94.3 minutes
Semi major axis: 6861 km
RCS: Unknown
Launch date: March 18, 2025
Source: United States (US)
Launch site: AIR FORCE EASTERN TEST RANGE (AFETR)
Your satellite tracking list
Your tracking list is empty




NASA's NSSDC Master Catalog

Two Line Element Set (TLE):
1 63326U 25057V   25119.00722481 -.00002470  00000-0 -80296-4 0  9995
2 63326  42.9970   7.7491 0000800 238.1339 121.9434 15.27572855  7657
Source of the keplerian elements: AFSPC